| time (UTC) | temp F | wind direction | speed knots | gust knots | rain 1hr in | rain 24hr in | rain mn in | humidity % | barometer mb |
| 20260508154518 | 59 | 263 | 2.6 | 7.8 | 0.00 | 0.00 | 0.00 | 54 | 1013.9 |
| 20260508154008 | 59 | 171 | 0.9 | 7.0 | 0.00 | 0.00 | 0.00 | 57 | 1014.0 |
| 20260508153512 | 59 | 208 | 0.9 | 7.0 | 0.00 | 0.00 | 0.00 | 53 | 1014.1 |
| 20260508153033 | 59 | 186 | 0.9 | 7.0 | 0.00 | 0.00 | 0.00 | 55 | 1014.0 |
| 20260508152508 | 58 | 170 | 0.9 | 7.0 | 0.00 | 0.00 | 0.00 | 54 | 1014.2 |
| 20260508152016 | 58 | 349 | 0.9 | 7.0 | 0.00 | 0.00 | 0.00 | 54 | 1014.2 |
| 20260508151538 | 57 | 184 | 0.0 | 7.8 | 0.00 | 0.00 | 0.00 | 57 | 1014.3 |
| 20260508151012 | 57 | 194 | 2.6 | 7.8 | 0.00 | 0.00 | 0.00 | 57 | 1014.4 |
| 20260508150517 | 56 | 134 | 0.0 | 5.2 | 0.00 | 0.00 | 0.00 | 58 | 1014.4 |
| 20260508150015 | 56 | 253 | 1.7 | 5.2 | 0.00 | 0.00 | 0.00 | 59 | 1014.5 |
| 20260508145506 | 55 | 207 | 0.9 | 5.2 | 0.00 | 0.00 | 0.00 | 59 | 1014.5 |
| 20260508145011 | 55 | 205 | 1.7 | 6.1 | 0.00 | 0.00 | 0.00 | 60 | 1014.5 |
| 20260508144515 | 55 | 188 | 0.9 | 6.1 | 0.00 | 0.00 | 0.00 | 59 | 1014.5 |
| 20260508144007 | 55 | 245 | 2.6 | 6.1 | 0.00 | 0.00 | 0.00 | 59 | 1014.4 |
| 20260508143506 | 54 | 331 | 0.9 | 6.1 | 0.00 | 0.00 | 0.00 | 60 | 1014.5 |
| 20260508143021 | 54 | 257 | 0.0 | 5.2 | 0.00 | 0.00 | 0.00 | 60 | 1014.4 |
| 20260508142512 | 54 | 258 | 1.7 | 7.0 | 0.00 | 0.00 | 0.00 | 59 | 1014.4 |
| 20260508142011 | 54 | 202 | 0.9 | 7.0 | 0.00 | 0.00 | 0.00 | 59 | 1014.4 |
| 20260508141525 | 54 | 273 | 0.0 | 6.1 | 0.00 | 0.00 | 0.00 | 59 | 1014.4 |
| 20260508141015 | 54 | 228 | 1.7 | 7.8 | 0.00 | 0.00 | 0.00 | 59 | 1014.4 |
| 20260508140514 | 54 | 192 | 1.7 | 7.8 | 0.00 | 0.00 | 0.00 | 59 | 1014.4 |
| 20260508140026 | 54 | 205 | 1.7 | 7.0 | 0.00 | 0.00 | 0.00 | 59 | 1014.4 |
| 20260508135514 | 54 | 195 | 2.6 | 7.0 | 0.00 | 0.00 | 0.00 | 59 | 1014.3 |
| 20260508135013 | 54 | 145 | 1.7 | 9.6 | 0.00 | 0.00 | 0.00 | 59 | 1014.3 |
| 20260508134527 | 54 | 182 | 0.9 | 9.6 | 0.00 | 0.00 | 0.00 | 59 | 1014.3 |
| 20260508134007 | 54 | 245 | 0.9 | 7.8 | 0.00 | 0.00 | 0.00 | 60 | 1014.3 |
| 20260508133507 | 54 | 257 | 0.9 | 7.8 | 0.00 | 0.00 | 0.00 | 60 | 1014.3 |
| 20260508133021 | 54 | 238 | 1.7 | 8.7 | 0.00 | 0.00 | 0.00 | 59 | 1014.3 |
| 20260508132506 | 54 | 241 | 1.7 | 8.7 | 0.00 | 0.00 | 0.00 | 58 | 1014.3 |
| 20260508132015 | 54 | 222 | 1.7 | 7.8 | 0.00 | 0.00 | 0.00 | 60 | 1014.2 |
| 20260508131525 | 54 | 251 | 4.3 | 10.4 | 0.00 | 0.00 | 0.00 | 58 | 1014.1 |
| 20260508131007 | 54 | 210 | 0.9 | 10.4 | 0.00 | 0.00 | 0.00 | 60 | 1014.2 |
| 20260508130510 | 53 | 229 | 1.7 | 6.1 | 0.00 | 0.00 | 0.00 | 62 | 1014.2 |
| 20260508130029 | 53 | 229 | 0.9 | 7.0 | 0.00 | 0.00 | 0.00 | 64 | 1014.1 |
| 20260508125507 | 52 | 180 | 1.7 | 7.0 | 0.00 | 0.00 | 0.00 | 63 | 1014.2 |
| 20260508125015 | 51 | 239 | 1.7 | 7.8 | 0.00 | 0.00 | 0.00 | 64 | 1014.2 |
| 20260508124532 | 51 | 223 | 1.7 | 7.8 | 0.00 | 0.00 | 0.00 | 64 | 1014.2 |
| 20260508124010 | 51 | 250 | 2.6 | 7.8 | 0.00 | 0.00 | 0.00 | 64 | 1014.2 |
| 20260508123512 | 51 | 201 | 0.9 | 7.0 | 0.00 | 0.00 | 0.00 | 64 | 1014.2 |
| 20260508123028 | 50 | 181 | 0.9 | 6.1 | 0.00 | 0.00 | 0.00 | 65 | 1014.1 |
| 20260508122507 | 50 | 219 | 2.6 | 6.1 | 0.00 | 0.00 | 0.00 | 65 | 1013.9 |
| 20260508122011 | 50 | 243 | 0.9 | 6.1 | 0.00 | 0.00 | 0.00 | 66 | 1014.1 |
| 20260508121527 | 50 | 167 | 0.9 | 7.8 | 0.00 | 0.00 | 0.00 | 66 | 1014.1 |
| 20260508121008 | 49 | 177 | 2.6 | 8.7 | 0.00 | 0.00 | 0.00 | 66 | 1014.0 |
| 20260508120507 | 49 | 195 | 2.6 | 8.7 | 0.00 | 0.00 | 0.00 | 65 | 1014.1 |
| 20260508120025 | 49 | 233 | 2.6 | 6.1 | 0.00 | 0.00 | 0.00 | 65 | 1014.1 |
| 20260508115509 | 49 | 269 | 0.9 | 6.1 | 0.00 | 0.00 | 0.00 | 68 | 1014.1 |
| 20260508115010 | 48 | 247 | 0.9 | 6.1 | 0.00 | 0.00 | 0.00 | 68 | 1014.0 |
| 20260508114528 | 48 | 196 | 0.9 | 6.1 | 0.00 | 0.00 | 0.00 | 69 | 1013.9 |
| 20260508114011 | 47 | 196 | 1.7 | 7.0 | 0.00 | 0.00 | 0.00 | 69 | 1014.0 |
| 20260508113515 | 47 | 259 | 1.7 | 7.0 | 0.00 | 0.00 | 0.00 | 71 | 1014.0 |
| 20260508113035 | 47 | 188 | 0.9 | 6.1 | 0.00 | 0.00 | 0.00 | 71 | 1013.9 |
| 20260508112509 | 46 | 215 | 0.9 | 6.1 | 0.00 | 0.00 | 0.00 | 72 | 1013.9 |
| 20260508112011 | 46 | 227 | 2.6 | 6.1 | 0.00 | 0.00 | 0.00 | 72 | 1013.9 |
| 20260508111530 | 45 | 174 | 0.9 | 4.3 | 0.00 | 0.00 | 0.00 | 73 | 1013.9 |
| 20260508111010 | 45 | 227 | 0.0 | 3.5 | 0.00 | 0.00 | 0.00 | 73 | 1013.8 |
| 20260508110513 | 44 | 185 | 0.0 | 3.5 | 0.00 | 0.00 | 0.00 | 74 | 1013.9 |
| 20260508110025 | 44 | 278 | 0.9 | 4.3 | 0.00 | 0.00 | 0.00 | 74 | 1013.9 |
| 20260508105508 | 44 | 223 | 0.0 | 5.2 | 0.00 | 0.00 | 0.00 | 75 | 1013.8 |
| 20260508105015 | 43 | 223 | 0.0 | 6.1 | 0.00 | 0.00 | 0.00 | 76 | 1013.7 |
| 20260508104525 | 43 | 236 | 1.7 | 6.1 | 0.00 | 0.00 | 0.00 | 77 | 1013.7 |
| 20260508104008 | 42 | 221 | 0.0 | 6.1 | 0.00 | 0.00 | 0.00 | 78 | 1013.6 |
| 20260508103511 | 42 | 182 | 0.9 | 6.1 | 0.00 | 0.00 | 0.00 | 79 | 1013.7 |
| 20260508103028 | 41 | 198 | 0.0 | 2.6 | 0.00 | 0.00 | 0.00 | 80 | 1013.6 |
| 20260508102508 | 41 | 214 | 0.0 | 2.6 | 0.00 | 0.00 | 0.00 | 80 | 1013.7 |
| 20260508102015 | 41 | 234 | 0.0 | 2.6 | 0.00 | 0.00 | 0.00 | 80 | 1013.7 |
| 20260508101528 | 41 | 126 | 0.0 | 0.9 | 0.00 | 0.00 | 0.00 | 80 | 1013.5 |
| 20260508101006 | 41 | 126 | 0.0 | 0.0 | 0.00 | 0.00 | 0.00 | 80 | 1013.4 |
| 20260508100511 | 41 | 126 | 0.0 | 0.9 | 0.00 | 0.00 | 0.00 | 80 | 1013.4 |
| 20260508100020 | 41 | 126 | 0.0 | 0.9 | 0.00 | 0.00 | 0.00 | 80 | 1013.3 |
| 20260508095507 | 41 | 126 | 0.0 | 0.9 | 0.00 | 0.00 | 0.00 | 80 | 1013.3 |
| 20260508095013 | 42 | 126 | 0.0 | 0.9 | 0.00 | 0.00 | 0.00 | 80 | 1013.4 |
| 20260508094525 | 42 | 126 | 0.0 | 0.9 | 0.00 | 0.00 | 0.00 | 80 | 1013.4 |
| 20260508094009 | 42 | 126 | 0.0 | 0.9 | 0.00 | 0.00 | 0.00 | 80 | 1013.4 |
| 20260508093516 | 42 | 126 | 0.0 | 0.9 | 0.00 | 0.00 | 0.00 | 80 | 1013.4 |
| 20260508093008 | 42 | 126 | 0.0 | 0.9 | 0.00 | 0.00 | 0.00 | 80 | 1013.5 |
| 20260508092507 | 42 | 126 | 0.0 | 0.0 | 0.00 | 0.00 | 0.00 | 80 | 1013.5 |
| 20260508092006 | 42 | 126 | 0.0 | 0.0 | 0.00 | 0.00 | 0.00 | 80 | 1013.5 |
| 20260508091528 | 42 | 126 | 0.0 | 0.0 | 0.00 | 0.00 | 0.00 | 80 | 1013.5 |
| 20260508091005 | 42 | 126 | 0.0 | 0.0 | 0.00 | 0.00 | 0.00 | 80 | 1013.6 |
| 20260508090507 | 42 | 126 | 0.0 | 0.0 | 0.00 | 0.00 | 0.00 | 80 | 1013.7 |
| 20260508090018 | 42 | 126 | 0.0 | 0.0 | 0.00 | 0.00 | 0.00 | 80 | 1013.7 |
| 20260508085509 | 42 | 126 | 0.0 | 0.9 | 0.00 | 0.00 | 0.00 | 79 | 1013.7 |
| 20260508085012 | 43 | 126 | 0.0 | 0.9 | 0.00 | 0.00 | 0.00 | 79 | 1013.7 |
| 20260508084522 | 43 | 126 | 0.0 | 0.0 | 0.00 | 0.00 | 0.00 | 78 | 1013.6 |
| 20260508084012 | 43 | 126 | 0.0 | 0.0 | 0.00 | 0.00 | 0.00 | 78 | 1013.7 |
| 20260508083510 | 43 | 126 | 0.0 | 0.0 | 0.00 | 0.00 | 0.00 | 78 | 1013.6 |
| 20260508083034 | 43 | 126 | 0.0 | 0.0 | 0.00 | 0.00 | 0.00 | 77 | 1013.7 |
| 20260508082510 | 44 | 126 | 0.0 | 0.9 | 0.00 | 0.00 | 0.00 | 77 | 1013.7 |
| 20260508082009 | 44 | 126 | 0.0 | 0.9 | 0.00 | 0.00 | 0.00 | 76 | 1013.7 |
| 20260508081530 | 44 | 126 | 0.0 | 0.9 | 0.00 | 0.00 | 0.00 | 76 | 1013.7 |
| 20260508081005 | 44 | 126 | 0.0 | 0.9 | 0.00 | 0.00 | 0.00 | 76 | 1013.7 |
| 20260508080509 | 44 | 126 | 0.0 | 0.0 | 0.00 | 0.00 | 0.00 | 75 | 1013.7 |
| 20260508080014 | 45 | 126 | 0.0 | 0.0 | 0.00 | 0.00 | 0.00 | 74 | 1013.7 |
| 20260508075508 | 45 | 126 | 0.0 | 0.0 | 0.00 | 0.00 | 0.00 | 73 | 1013.7 |
| 20260508075010 | 45 | 126 | 0.0 | 0.0 | 0.00 | 0.00 | 0.00 | 73 | 1013.7 |
| 20260508074519 | 46 | 126 | 0.0 | 0.0 | 0.00 | 0.00 | 0.00 | 72 | 1013.7 |
| 20260508074006 | 46 | 126 | 0.0 | 0.9 | 0.00 | 0.00 | 0.00 | 71 | 1013.7 |
| 20260508073510 | 46 | 126 | 0.0 | 1.7 | 0.00 | 0.00 | 0.00 | 71 | 1013.8 |
| 20260508073025 | 47 | 129 | 0.0 | 1.7 | 0.00 | 0.00 | 0.00 | 70 | 1013.8 |
| 20260508072507 | 47 | 52 | 0.0 | 0.0 | 0.00 | 0.00 | 0.00 | 69 | 1013.9 |
| 20260508072009 | 48 | 53 | 0.0 | 0.0 | 0.00 | 0.00 | 0.00 | 68 | 1013.9 |
| 20260508071532 | 48 | 53 | 0.0 | 0.9 | 0.00 | 0.00 | 0.00 | 67 | 1013.9 |
| 20260508071005 | 48 | 53 | 0.0 | 0.9 | 0.00 | 0.00 | 0.00 | 67 | 1013.9 |
| 20260508070502 | 49 | 52 | 0.0 | 1.7 | 0.00 | 0.00 | 0.00 | 67 | 1014.0 |
| 20260508070003 | 49 | 26 | 0.0 | 1.7 | 0.00 | 0.00 | 0.00 | 67 | 1014.1 |
| 20260508065504 | 49 | 5 | 0.0 | 0.9 | 0.00 | 0.00 | 0.00 | 66 | 1014.3 |
| 20260508065005 | 49 | 5 | 0.0 | 2.6 | 0.00 | 0.00 | 0.00 | 66 | 1014.2 |
| 20260508064503 | 49 | 11 | 0.0 | 2.6 | 0.00 | 0.00 | 0.00 | 64 | 1014.2 |
| 20260508064003 | 49 | 22 | 0.0 | 1.7 | 0.00 | 0.00 | 0.00 | 64 | 1014.2 |
| 20260508063503 | 49 | 5 | 0.9 | 1.7 | 0.00 | 0.00 | 0.00 | 64 | 1014.4 |
| 20260508063004 | 49 | 5 | 0.0 | 1.7 | 0.00 | 0.00 | 0.00 | 64 | 1014.4 |
| 20260508062504 | 49 | 5 | 0.0 | 0.9 | 0.00 | 0.00 | 0.00 | 64 | 1014.3 |
| 20260508062005 | 49 | 360 | 0.0 | 0.9 | 0.00 | 0.00 | 0.00 | 65 | 1014.4 |
| 20260508061506 | 49 | 5 | 0.0 | 0.9 | 0.00 | 0.00 | 0.00 | 66 | 1014.4 |
| 20260508061004 | 49 | 328 | 0.0 | 0.9 | 0.00 | 0.00 | 0.00 | 66 | 1014.3 |
| 20260508060505 | 49 | 328 | 0.0 | 1.7 | 0.00 | 0.00 | 0.00 | 65 | 1014.1 |
| 20260508060012 | 49 | 328 | 0.0 | 1.7 | 0.00 | 0.00 | 0.00 | 64 | 1014.0 |
| 20260508055505 | 48 | 228 | 0.0 | 1.7 | 0.00 | 0.00 | 0.00 | 66 | 1014.1 |
| 20260508055002 | 48 | 227 | 0.0 | 1.7 | 0.00 | 0.00 | 0.00 | 65 | 1014.0 |
| 20260508054503 | 48 | 217 | 0.0 | 1.7 | 0.00 | 0.00 | 0.00 | 65 | 1014.0 |
| 20260508054001 | 48 | 213 | 0.0 | 4.3 | 0.00 | 0.00 | 0.00 | 67 | 1013.9 |
| 20260508053505 | 48 | 205 | 0.0 | 4.3 | 0.00 | 0.00 | 0.00 | 67 | 1013.9 |
| 20260508053005 | 48 | 223 | 0.0 | 2.6 | 0.00 | 0.00 | 0.00 | 69 | 1013.9 |
| 20260508052502 | 48 | 202 | 0.0 | 3.5 | 0.00 | 0.00 | 0.00 | 69 | 1013.9 |
| 20260508052007 | 48 | 256 | 0.0 | 3.5 | 0.00 | 0.00 | 0.00 | 67 | 1013.9 |
| 20260508051504 | 47 | 205 | 0.0 | 3.5 | 0.00 | 0.00 | 0.00 | 67 | 1013.9 |
| 20260508051003 | 47 | 196 | 0.0 | 3.5 | 0.00 | 0.00 | 0.00 | 68 | 1013.9 |
| 20260508050503 | 47 | 183 | 0.0 | 3.5 | 0.00 | 0.00 | 0.00 | 70 | 1013.9 |
| 20260508050005 | 47 | 216 | 0.0 | 1.7 | 0.00 | 0.00 | 0.00 | 72 | 1013.9 |
| 20260508045503 | 47 | 200 | 0.0 | 1.7 | 0.00 | 0.00 | 0.00 | 72 | 1014.1 |
| 20260508045004 | 47 | 256 | 0.0 | 1.7 | 0.00 | 0.00 | 0.00 | 72 | 1014.1 |
| 20260508044511 | 46 | 256 | 0.0 | 0.9 | 0.00 | 0.00 | 0.00 | 73 | 1014.1 |
| 20260508044006 | 46 | 275 | 0.0 | 0.0 | 0.00 | 0.00 | 0.00 | 73 | 1014.1 |
| 20260508043505 | 46 | 275 | 0.0 | 0.9 | 0.00 | 0.00 | 0.00 | 74 | 1014.1 |
| 20260508043003 | 46 | 275 | 0.0 | 0.9 | 0.00 | 0.00 | 0.00 | 75 | 1014.2 |
| 20260508042503 | 46 | 275 | 0.0 | 0.0 | 0.00 | 0.00 | 0.00 | 74 | 1014.1 |
| 20260508042004 | 46 | 275 | 0.0 | 0.9 | 0.00 | 0.00 | 0.00 | 75 | 1014.2 |
| 20260508041508 | 46 | 275 | 0.0 | 0.9 | 0.00 | 0.00 | 0.00 | 75 | 1014.1 |
| 20260508041003 | 46 | 275 | 0.0 | 0.0 | 0.00 | 0.00 | 0.00 | 75 | 1014.2 |
| 20260508040502 | 45 | 275 | 0.0 | 0.0 | 0.00 | 0.00 | 0.00 | 75 | 1014.2 |
| 20260508040004 | 45 | 275 | 0.0 | 0.0 | 0.00 | 0.00 | 0.00 | 73 | 1014.1 |
| 20260508035503 | 45 | 275 | 0.0 | 0.9 | 0.00 | 0.00 | 0.00 | 73 | 1014.1 |
| 20260508035004 | 45 | 275 | 0.0 | 0.9 | 0.00 | 0.00 | 0.00 | 74 | 1014.1 |
| 20260508034510 | 45 | 275 | 0.0 | 0.0 | 0.00 | 0.00 | 0.00 | 73 | 1014.1 |
| 20260508034006 | 45 | 275 | 0.0 | 0.0 | 0.00 | 0.00 | 0.00 | 74 | 1014.1 |
| 20260508033506 | 45 | 275 | 0.0 | 0.0 | 0.00 | 0.00 | 0.00 | 73 | 1014.1 |
| 20260508033023 | 46 | 275 | 0.0 | 0.0 | 0.00 | 0.00 | 0.00 | 74 | 1014.2 |
| 20260508032506 | 45 | 275 | 0.0 | 0.0 | 0.00 | 0.00 | 0.00 | 73 | 1014.1 |
| 20260508032009 | 45 | 275 | 0.0 | 0.0 | 0.00 | 0.00 | 0.00 | 72 | 1014.1 |
| 20260508031522 | 45 | 275 | 0.0 | 0.0 | 0.00 | 0.00 | 0.00 | 72 | 1014.1 |
| 20260508031003 | 45 | 275 | 0.0 | 0.0 | 0.00 | 0.00 | 0.00 | 71 | 1014.1 |
| 20260508030502 | 45 | 275 | 0.0 | 0.0 | 0.00 | 0.00 | 0.00 | 71 | 1014.1 |
| 20260508030008 | 45 | 275 | 0.0 | 0.0 | 0.00 | 0.00 | 0.00 | 70 | 1014.2 |
| 20260508025504 | 45 | 275 | 0.0 | 0.0 | 0.00 | 0.00 | 0.00 | 70 | 1014.2 |
| 20260508025003 | 46 | 275 | 0.0 | 0.0 | 0.00 | 0.00 | 0.00 | 70 | 1014.2 |
| 20260508024508 | 46 | 275 | 0.0 | 0.0 | 0.00 | 0.00 | 0.00 | 69 | 1014.2 |
| 20260508024003 | 46 | 275 | 0.0 | 0.0 | 0.00 | 0.00 | 0.00 | 68 | 1014.2 |
| 20260508023504 | 46 | 275 | 0.0 | 0.0 | 0.00 | 0.00 | 0.00 | 67 | 1014.2 |
| 20260508023014 | 46 | 275 | 0.0 | 0.0 | 0.00 | 0.00 | 0.00 | 67 | 1014.2 |
| 20260508022510 | 46 | 275 | 0.0 | 0.0 | 0.00 | 0.00 | 0.00 | 66 | 1014.2 |
| 20260508022008 | 47 | 275 | 0.0 | 0.9 | 0.00 | 0.00 | 0.00 | 66 | 1014.2 |
| 20260508021527 | 47 | 275 | 0.0 | 0.9 | 0.00 | 0.00 | 0.00 | 66 | 1014.1 |
| 20260508021009 | 47 | 275 | 0.0 | 0.9 | 0.00 | 0.00 | 0.00 | 65 | 1014.2 |
| 20260508020511 | 47 | 275 | 0.0 | 0.9 | 0.00 | 0.00 | 0.00 | 65 | 1014.1 |
| 20260508020020 | 47 | 275 | 0.0 | 0.0 | 0.00 | 0.00 | 0.00 | 62 | 1014.2 |
| 20260508015507 | 48 | 275 | 0.0 | 0.0 | 0.00 | 0.00 | 0.00 | 62 | 1014.3 |
| 20260508015002 | 48 | 275 | 0.0 | 0.0 | 0.00 | 0.00 | 0.00 | 61 | 1014.2 |
| 20260508014508 | 48 | 275 | 0.0 | 0.0 | 0.00 | 0.00 | 0.00 | 62 | 1014.3 |
| 20260508014004 | 49 | 275 | 0.0 | 0.0 | 0.00 | 0.00 | 0.00 | 61 | 1014.3 |
| 20260508013504 | 49 | 275 | 0.0 | 0.0 | 0.00 | 0.00 | 0.00 | 59 | 1014.2 |
| 20260508013007 | 49 | 275 | 0.0 | 0.0 | 0.00 | 0.00 | 0.00 | 57 | 1014.3 |
| 20260508012505 | 50 | 275 | 0.0 | 0.0 | 0.00 | 0.00 | 0.00 | 56 | 1014.2 |
| 20260508012006 | 50 | 275 | 0.0 | 0.0 | 0.00 | 0.00 | 0.00 | 55 | 1014.0 |
| 20260508011513 | 50 | 275 | 0.0 | 0.0 | 0.00 | 0.00 | 0.00 | 53 | 1014.0 |
| 20260508011006 | 51 | 275 | 0.0 | 0.0 | 0.00 | 0.00 | 0.00 | 53 | 1014.0 |
| 20260508010506 | 51 | 275 | 0.0 | 0.0 | 0.00 | 0.00 | 0.00 | 51 | 1013.9 |
| 20260508010032 | 51 | 275 | 0.0 | 0.9 | 0.00 | 0.00 | 0.00 | 50 | 1013.9 |
| 20260508005508 | 52 | 275 | 0.0 | 0.9 | 0.00 | 0.00 | 0.00 | 49 | 1013.9 |
| 20260508005011 | 52 | 275 | 0.0 | 0.9 | 0.00 | 0.00 | 0.00 | 48 | 1013.9 |
| 20260508004523 | 52 | 288 | 0.0 | 0.0 | 0.00 | 0.00 | 0.00 | 48 | 1013.8 |
| 20260508004008 | 53 | 288 | 0.0 | 0.9 | 0.00 | 0.00 | 0.00 | 47 | 1013.8 |
| 20260508003502 | 53 | 288 | 0.0 | 1.7 | 0.00 | 0.00 | 0.00 | 47 | 1013.8 |
| 20260508003007 | 53 | 288 | 0.0 | 1.7 | 0.00 | 0.00 | 0.00 | 46 | 1013.8 |
| 20260508002504 | 54 | 272 | 0.0 | 1.7 | 0.00 | 0.00 | 0.00 | 46 | 1013.8 |
| 20260508002003 | 54 | 252 | 0.0 | 1.7 | 0.00 | 0.00 | 0.00 | 45 | 1013.8 |
| 20260508001511 | 54 | 215 | 0.0 | 0.9 | 0.00 | 0.00 | 0.00 | 44 | 1013.7 |
| 20260508001006 | 55 | 215 | 0.0 | 2.6 | 0.00 | 0.00 | 0.00 | 44 | 1013.7 |
| 20260508000504 | 55 | 215 | 0.9 | 2.6 | 0.00 | 0.00 | 0.00 | 43 | 1013.6 |
| 20260508000017 | 55 | 189 | 0.0 | 2.6 | 0.00 | 0.00 | 0.00 | 43 | 1013.6 |
| 20260507235511 | 55 | 42 | 0.0 | 2.6 | 0.00 | 0.00 | 0.00 | 43 | 1013.5 |
| 20260507235010 | 55 | 265 | 0.0 | 2.6 | 0.00 | 0.00 | 0.00 | 43 | 1013.5 |
| 20260507234518 | 56 | 229 | 0.0 | 1.7 | 0.00 | 0.00 | 0.00 | 42 | 1013.5 |
| 20260507234007 | 56 | 250 | 0.0 | 3.5 | 0.00 | 0.00 | 0.00 | 42 | 1013.5 |
| 20260507233507 | 56 | 242 | 0.9 | 3.5 | 0.00 | 0.00 | 0.00 | 41 | 1013.5 |
| 20260507233024 | 56 | 280 | 0.0 | 1.7 | 0.00 | 0.00 | 0.00 | 40 | 1013.4 |
| 20260507232508 | 56 | 255 | 0.0 | 1.7 | 0.00 | 0.00 | 0.00 | 41 | 1013.3 |
| 20260507232018 | 56 | 336 | 0.0 | 0.9 | 0.00 | 0.00 | 0.00 | 41 | 1013.5 |
| 20260507231508 | 56 | 26 | 0.0 | 2.6 | 0.00 | 0.00 | 0.00 | 42 | 1013.4 |
| 20260507231004 | 56 | 223 | 0.0 | 3.5 | 0.00 | 0.00 | 0.00 | 43 | 1013.3 |
| 20260507230504 | 56 | 5 | 0.0 | 3.5 | 0.00 | 0.00 | 0.00 | 43 | 1013.4 |
| 20260507230020 | 57 | 333 | 0.0 | 2.6 | 0.00 | 0.00 | 0.00 | 42 | 1013.4 |
| 20260507225508 | 57 | 13 | 0.0 | 2.6 | 0.00 | 0.00 | 0.00 | 41 | 1013.5 |
| 20260507225007 | 57 | 360 | 0.0 | 3.5 | 0.00 | 0.00 | 0.00 | 41 | 1013.6 |
| 20260507224519 | 57 | 272 | 0.9 | 3.5 | 0.00 | 0.00 | 0.00 | 40 | 1013.6 |
| 20260507224007 | 58 | 319 | 0.0 | 3.5 | 0.00 | 0.00 | 0.00 | 39 | 1013.6 |
| 20260507223507 | 58 | 17 | 0.0 | 1.7 | 0.00 | 0.00 | 0.00 | 40 | 1013.6 |
| 20260507223050 | 58 | 352 | 0.0 | 1.7 | 0.00 | 0.00 | 0.00 | 39 | 1013.7 |
| 20260507222509 | 58 | 19 | 0.0 | 2.6 | 0.00 | 0.00 | 0.00 | 40 | 1013.7 |
| 20260507222011 | 58 | 298 | 0.9 | 2.6 | 0.00 | 0.00 | 0.00 | 39 | 1013.7 |
| 20260507221528 | 59 | 311 | 0.0 | 4.3 | 0.00 | 0.00 | 0.00 | 41 | 1013.7 |
| 20260507221003 | 59 | 73 | 0.0 | 4.3 | 0.00 | 0.00 | 0.00 | 39 | 1013.8 |
| 20260507220503 | 59 | 246 | 0.0 | 4.3 | 0.00 | 0.00 | 0.00 | 38 | 1013.8 |
| 20260507220010 | 59 | 232 | 0.9 | 6.1 | 0.00 | 0.00 | 0.00 | 38 | 1013.8 |
| 20260507215509 | 59 | 39 | 0.9 | 10.4 | 0.00 | 0.00 | 0.00 | 38 | 1013.7 |
| 20260507215006 | 60 | 273 | 1.7 | 10.4 | 0.00 | 0.00 | 0.00 | 39 | 1013.7 |
| 20260507214515 | 60 | 307 | 0.0 | 4.3 | 0.00 | 0.00 | 0.00 | 38 | 1013.5 |
| 20260507214005 | 60 | 5 | 0.0 | 4.3 | 0.00 | 0.00 | 0.00 | 38 | 1013.6 |
| 20260507213506 | 60 | 352 | 0.9 | 5.2 | 0.00 | 0.00 | 0.00 | 36 | 1013.5 |
| 20260507213022 | 60 | 332 | 0.9 | 5.2 | 0.00 | 0.00 | 0.00 | 39 | 1013.4 |
| 20260507212509 | 59 | 14 | 0.0 | 5.2 | 0.00 | 0.00 | 0.00 | 38 | 1013.5 |
| 20260507212017 | 60 | 352 | 0.0 | 5.2 | 0.00 | 0.00 | 0.00 | 39 | 1013.4 |
| 20260507211504 | 60 | 215 | 0.9 | 3.5 | 0.00 | 0.00 | 0.00 | 39 | 1013.4 |
| 20260507211004 | 59 | 187 | 0.9 | 3.5 | 0.00 | 0.00 | 0.00 | 38 | 1013.4 |
| 20260507210504 | 59 | 22 | 0.0 | 4.3 | 0.00 | 0.00 | 0.00 | 38 | 1013.5 |
| 20260507210008 | 60 | 26 | 0.0 | 9.6 | 0.00 | 0.00 | 0.00 | 38 | 1013.5 |
| 20260507205503 | 60 | 33 | 0.9 | 9.6 | 0.00 | 0.00 | 0.00 | 38 | 1013.4 |
| 20260507205004 | 60 | 39 | 0.9 | 6.1 | 0.00 | 0.00 | 0.00 | 38 | 1013.3 |
| 20260507204514 | 61 | 232 | 0.0 | 7.8 | 0.00 | 0.00 | 0.00 | 38 | 1013.3 |
| 20260507204006 | 60 | 18 | 0.9 | 7.8 | 0.00 | 0.00 | 0.00 | 41 | 1013.2 |
| 20260507203512 | 60 | 304 | 1.7 | 10.4 | 0.00 | 0.00 | 0.00 | 39 | 1013.2 |
| 20260507203030 | 60 | 108 | 1.7 | 10.4 | 0.00 | 0.00 | 0.00 | 41 | 1013.1 |
| 20260507202509 | 59 | 30 | 2.6 | 12.2 | 0.00 | 0.00 | 0.00 | 42 | 1013.1 |
| 20260507202013 | 59 | 222 | 0.0 | 12.2 | 0.00 | 0.00 | 0.00 | 40 | 1013.2 |
| 20260507201523 | 59 | 344 | 1.7 | 7.8 | 0.00 | 0.00 | 0.00 | 41 | 1013.3 |
| 20260507201015 | 60 | 17 | 0.9 | 4.3 | 0.00 | 0.00 | 0.00 | 40 | 1013.5 |
| 20260507200510 | 60 | 19 | 0.9 | 4.3 | 0.00 | 0.00 | 0.00 | 43 | 1013.5 |
| 20260507200046 | 60 | 351 | 0.9 | 6.1 | 0.00 | 0.00 | 0.00 | 40 | 1013.4 |
| 20260507195503 | 60 | 304 | 0.9 | 6.1 | 0.00 | 0.00 | 0.00 | 39 | 1013.4 |
| 20260507195004 | 61 | 352 | 0.9 | 7.8 | 0.00 | 0.00 | 0.00 | 38 | 1013.4 |
| 20260507194511 | 61 | 298 | 0.9 | 7.8 | 0.00 | 0.00 | 0.00 | 41 | 1013.4 |
| 20260507194007 | 61 | 337 | 1.7 | 6.1 | 0.00 | 0.00 | 0.00 | 39 | 1013.6 |
| 20260507193504 | 61 | 298 | 0.0 | 5.2 | 0.00 | 0.00 | 0.00 | 40 | 1013.6 |
| 20260507193036 | 61 | 65 | 0.9 | 10.4 | 0.00 | 0.00 | 0.00 | 38 | 1013.6 |
| 20260507192506 | 61 | 45 | 1.7 | 10.4 | 0.00 | 0.00 | 0.00 | 36 | 1013.5 |
| 20260507192007 | 60 | 224 | 1.7 | 9.6 | 0.00 | 0.00 | 0.00 | 40 | 1013.5 |
| 20260507191522 | 60 | 193 | 1.7 | 9.6 | 0.00 | 0.00 | 0.00 | 39 | 1013.6 |
| 20260507191003 | 60 | 346 | 0.9 | 7.0 | 0.00 | 0.00 | 0.00 | 38 | 1013.7 |
| 20260507190503 | 60 | 209 | 0.9 | 10.4 | 0.00 | 0.00 | 0.00 | 39 | 1013.7 |
| 20260507190004 | 60 | 168 | 0.9 | 10.4 | 0.00 | 0.00 | 0.00 | 41 | 1013.8 |
| 20260507185503 | 60 | 9 | 0.9 | 6.1 | 0.00 | 0.00 | 0.00 | 41 | 1013.7 |
| 20260507185003 | 61 | 185 | 0.9 | 6.1 | 0.00 | 0.00 | 0.00 | 40 | 1013.8 |
| 20260507184512 | 60 | 174 | 0.9 | 7.0 | 0.00 | 0.00 | 0.00 | 43 | 1013.8 |
| 20260507184004 | 61 | 274 | 1.7 | 7.0 | 0.00 | 0.00 | 0.00 | 44 | 1013.8 |
| 20260507183503 | 61 | 169 | 0.9 | 7.0 | 0.00 | 0.00 | 0.00 | 42 | 1013.8 |
| 20260507183028 | 61 | 313 | 0.9 | 10.4 | 0.00 | 0.00 | 0.00 | 43 | 1013.8 |
| 20260507182505 | 60 | 16 | 1.7 | 10.4 | 0.00 | 0.00 | 0.00 | 42 | 1013.8 |
| 20260507182002 | 60 | 270 | 0.0 | 9.6 | 0.00 | 0.00 | 0.00 | 44 | 1013.8 |
| 20260507181502 | 60 | 352 | 0.9 | 9.6 | 0.00 | 0.00 | 0.00 | 44 | 1013.8 |
| 20260507181004 | 60 | 211 | 1.7 | 6.1 | 0.00 | 0.00 | 0.00 | 44 | 1013.7 |
| 20260507180502 | 60 | 19 | 0.0 | 7.8 | 0.00 | 0.00 | 0.00 | 46 | 1013.8 |
| 20260507180005 | 60 | 319 | 0.9 | 7.8 | 0.00 | 0.00 | 0.00 | 48 | 1013.8 |
| 20260507175503 | 60 | 263 | 0.9 | 6.1 | 0.00 | 0.00 | 0.00 | 46 | 1013.8 |
| 20260507175004 | 59 | 360 | 0.9 | 5.2 | 0.00 | 0.00 | 0.00 | 45 | 1013.8 |
| 20260507174506 | 59 | 63 | 0.9 | 5.2 | 0.00 | 0.00 | 0.00 | 47 | 1013.9 |
| 20260507174002 | 59 | 267 | 0.9 | 6.1 | 0.00 | 0.00 | 0.00 | 43 | 1014.0 |
| 20260507173504 | 59 | 19 | 0.0 | 8.7 | 0.00 | 0.00 | 0.00 | 46 | 1014.0 |
| 20260507173016 | 59 | 331 | 0.9 | 8.7 | 0.00 | 0.00 | 0.00 | 47 | 1014.1 |
| 20260507172504 | 59 | 344 | 0.0 | 7.8 | 0.00 | 0.00 | 0.00 | 47 | 1014.2 |
| 20260507172004 | 58 | 232 | 0.9 | 5.2 | 0.00 | 0.00 | 0.00 | 48 | 1014.2 |
| 20260507171515 | 58 | 360 | 0.9 | 6.1 | 0.00 | 0.00 | 0.00 | 47 | 1014.3 |
| 20260507171005 | 58 | 24 | 0.9 | 7.0 | 0.00 | 0.00 | 0.00 | 46 | 1014.4 |
| 20260507170505 | 58 | 227 | 0.9 | 7.8 | 0.00 | 0.00 | 0.00 | 45 | 1014.5 |
| 20260507170004 | 58 | 28 | 1.7 | 9.6 | 0.00 | 0.00 | 0.00 | 44 | 1014.5 |
| 20260507165503 | 58 | 292 | 3.5 | 9.6 | 0.00 | 0.00 | 0.00 | 41 | 1014.6 |
| 20260507165003 | 58 | 29 | 0.9 | 7.0 | 0.00 | 0.00 | 0.00 | 44 | 1014.5 |
| 20260507164504 | 58 | 241 | 0.9 | 4.3 | 0.00 | 0.00 | 0.00 | 44 | 1014.6 |
| 20260507164003 | 58 | 238 | 0.9 | 4.3 | 0.00 | 0.00 | 0.00 | 44 | 1014.6 |
| 20260507163504 | 58 | 313 | 0.9 | 7.8 | 0.00 | 0.00 | 0.00 | 44 | 1014.7 |
| 20260507163009 | 57 | 34 | 2.6 | 7.8 | 0.00 | 0.00 | 0.00 | 45 | 1014.6 |
| 20260507162505 | 57 | 180 | 2.6 | 7.8 | 0.00 | 0.00 | 0.00 | 42 | 1014.6 |
| 20260507162006 | 57 | 334 | 0.9 | 6.1 | 0.00 | 0.00 | 0.00 | 44 | 1014.5 |
| 20260507161512 | 57 | 290 | 0.0 | 5.2 | 0.00 | 0.00 | 0.00 | 45 | 1014.6 |
| 20260507161007 | 57 | 284 | 1.7 | 7.8 | 0.00 | 0.00 | 0.00 | 45 | 1014.5 |
| 20260507160507 | 57 | 294 | 1.7 | 7.8 | 0.00 | 0.00 | 0.00 | 44 | 1014.5 |
| 20260507160018 | 56 | 280 | 0.9 | 5.2 | 0.00 | 0.00 | 0.00 | 45 | 1014.5 |
| 20260507155506 | 56 | 267 | 0.0 | 7.8 | 0.00 | 0.00 | 0.00 | 50 | 1014.4 |
| 20260507155002 | 55 | 342 | 0.9 | 7.8 | 0.00 | 0.00 | 0.00 | 46 | 1014.4 |